weather.gov     
National Weather Service

Regional Weather Roundup
NWS Homepage
This page is being discontinued on March 12, 2014.
The same data is available at this site. Please update your bookmarks.
Thank you, and we apologize for the inconvenience.
Please send an email to SR-SRH.Webmaster@noaa.gov with any concerns.


Current Version
Previous Version:    01  02  03  04  05  06  07  08  09  10  11  12  13  14  15  16  17  18  19  20  21  22  23  24  25  26  27  28  29  30  
   31  32  33  34  35  36  37  38  39  40  41  42  43  44  45  46  47  48  49  50  51  52  53  54  
[Printable]
128
ASUS41 KBTV 210210
RWRBTV
VERMONT REGIONAL WEATHER ROUNDUP
NATIONAL WEATHER SERVICE BURLINGTON VT
1000 PM EDT MON OCT 20 2014

NOTE: "FAIR" INDICATES FEW OR NO CLOUDS BELOW 12,000 FEET WITH NO
SIGNIFICANT WEATHER AND/OR OBSTRUCTIONS TO VISIBILITY.

* THESE REPORTS ARE NOT UNDER NWS QUALITY CONTROL AND/OR DO NOT
  REPORT WEATHER SUCH AS PRECIPITATION AND FOG.

VTZ001>019-210300-
_____VERMONT_____


CITY           SKY/WX    TMP DP  RH WIND       PRES   REMARKS
BURLINGTON     MOCLDY    43  36  76 CALM      29.93S
MONTPELIER     CLOUDY    42  37  82 CALM      29.97S
MORRISVILLE    PTCLDY    39  35  86 CALM      29.96S
ST. JOHNSBURY*   N/A     44  37  76 MISG      29.94S
MIDDLEBURY*    CLOUDY    49  36  58 SE3       29.93F
RUTLAND*       CLOUDY    45  36  70 SE5       29.94S
SPRINGFIELD    CLOUDY    44  39  82 CALM      29.97R
HIGHGATE*      MOCLDY    43  38  83 E3        29.93F
NEWPORT*       CLOUDY   N/A N/A N/A CALM      29.95F
BENNINGTON     CLOUDY    51  36  56 VRB5      29.94R

_____LAKE CHAMPLAIN_____


CITY           SKY/WX    TMP DP  RH WIND       PRES   REMARKS
COLCHESTER RF*   N/A     50  43  76 W7          N/A
DIAMOND ISL*     N/A     48  39  71 S5          N/A

$$

NYZ007-026>031-035-052-083-210300-
_____NORTHERN NEW YORK_____


CITY           SKY/WX    TMP DP  RH WIND       PRES   REMARKS
PLATTSBURGH    MOCLDY    43  40  89 CALM      29.93S
SARANAC LAKE   CLOUDY    40  37  89 CALM      29.89R
MASSENA        CLOUDY    44  44 100 CALM      29.92S
OGDENSBURG*    DRIZZLE   45  45 100 E3        29.89S
POTSDAM*       CLOUDY    45  45 100 CALM      29.90S
WATERTOWN      CLOUDY    52  40  63 SE3       29.86S
FT DRUM        CLOUDY    46  41  81 SE10      29.86S
ALBANY         CLOUDY    52  36  54 S8        29.94S
GLENS FALLS    CLOUDY    47  38  71 CALM      29.93F

$$
NHZ002-005-011-210300-
_____NEW HAMPSHIRE_____


CITY           SKY/WX    TMP DP  RH WIND       PRES   REMARKS
LEBANON        CLOUDY    43  37  79 CALM      29.95S
KEENE          CLOUDY    46  34  61 CALM      29.98S
MT WASHINGTON  FOG       25  25 100 W35         N/A  VSB 1/16WCI   7
PLYMOUTH       CLOUDY    40  40 100 CALM      29.97S
WHITEFIELD     CLOUDY    41  37  86 CALM      29.95S

$$

_____REGIONAL QUEBEC LOCATIONS_____


CITY           SKY/WX    TMP DP  RH WIND       PRES   REMARKS
MONTREAL       LGT RAIN  43  37  81 NE6       29.94F
QUEBEC CITY    MOCLDY    37  30  75 SW7       29.96S
SHERBROOKE     CLOUDY    39  37  93 E3        29.96S

_____REGIONAL ONTARIO LOCATIONS_____


CITY           SKY/WX    TMP DP  RH WIND       PRES   REMARKS
OTTAWA         LGT RAIN  39  39 100 NE6       29.91S FOG

______KEY______
VSB  - VISIBILITY IN MILES
WCI  - WIND CHILL INDEX
HX   - HEAT INDEX
$$
NNNN




U.S. Dept. of Commerce
NOAA National Weather Service
1325 East West Highway
Silver Spring, MD 20910
E-mail: w-nws.webmaster@noaa.gov
Page last modified: May 16, 2007
NATIONAL WEATHER SERVICE: for Safety, for Work, for Fun - FOR LIFE